W4JTD-13 Weather Reports


time (UTC)temp
F
wind
direction
speed
knots
gust
knots
rain 1hr
in
rain 24hr
in
rain mn
in
humidity
%
barometer
mb
20260508044035 52 283 2.6 9.6 0.00 0.07 0.00 48 1014.4
20260508043535 52 6 4.3 8.7 0.00 0.07 0.00 47 1014.5
20260508043046 52 2 5.2 8.7 0.00 0.07 0.00 49 1014.5
20260508042540 51 323 0.9 6.1 0.00 0.07 0.00 52 1014.4
20260508042035 52 234 1.7 6.1 0.00 0.07 0.00 53 1014.3
20260508041544 52 336 2.6 6.1 0.00 0.07 0.00 50 1014.4
20260508041035 52 0 0.9 4.3 0.00 0.07 0.00 53 1014.3
20260508040535 52 294 1.7 10.4 0.00 0.07 0.00 51 1014.3
20260508040043 52 234 1.7 10.4 0.00 0.07 0.00 51 1014.2
20260508035535 52 44 2.6 5.2 0.00 0.08 0.07 51 1014.3
20260508035036 52 120 0.9 6.1 0.00 0.08 0.07 51 1014.2
20260508034553 53 338 2.6 7.8 0.00 0.08 0.07 51 1014.1
20260508034034 52 345 4.3 7.8 0.00 0.08 0.07 52 1014.1
20260508033535 52 347 2.6 6.1 0.00 0.08 0.07 53 1014.1
20260508033046 52 304 0.9 7.8 0.00 0.08 0.07 54 1014.1
20260508032536 52 339 1.7 7.8 0.00 0.08 0.07 53 1014.1
20260508032035 51 323 2.6 7.8 0.00 0.08 0.07 57 1014.2
20260508031546 52 65 1.7 3.5 0.00 0.08 0.07 56 1014.3
20260508031035 52 0 0.9 6.1 0.00 0.08 0.07 57 1014.2
20260508030535 53 352 2.6 6.1 0.00 0.08 0.07 52 1014.1
20260508030056 53 334 1.7 4.3 0.00 0.08 0.07 54 1014.0
20260508025535 53 0 0.9 10.4 0.00 0.11 0.07 53 1014.0
20260508025035 54 0 1.7 10.4 0.00 0.11 0.07 51 1013.8
20260508024553 54 333 4.3 10.4 0.00 0.11 0.07 50 1013.8
20260508024036 54 310 1.7 6.1 0.00 0.11 0.07 51 1013.7
20260508023535 54 345 1.7 7.0 0.00 0.11 0.07 52 1013.7
20260508023048 55 355 3.5 7.0 0.00 0.11 0.07 49 1013.6
20260508022534 55 349 2.6 10.4 0.00 0.11 0.07 49 1013.6
20260508022035 55 319 4.3 12.2 0.00 0.11 0.07 48 1013.6
20260508021539 55 3 3.5 12.2 0.00 0.11 0.07 48 1013.5
20260508021037 55 6 4.3 13.0 0.00 0.11 0.07 49 1013.4
20260508020535 55 276 3.5 13.0 0.00 0.11 0.07 49 1013.5
20260508020042 55 34 3.5 10.4 0.00 0.11 0.07 50 1013.4
20260508015535 55 271 3.5 9.6 0.00 0.11 0.07 50 1013.4
20260508015035 55 269 2.6 7.8 0.00 0.11 0.07 53 1013.3
20260508014546 55 356 2.6 7.8 0.00 0.11 0.07 51 1013.2
20260508014035 55 6 2.6 5.2 0.00 0.11 0.07 51 1013.2
20260508013535 55 0 1.7 5.2 0.00 0.11 0.07 52 1013.1
20260508013043 56 349 1.7 4.3 0.00 0.11 0.07 48 1012.9
20260508012535 56 353 0.0 12.2 0.00 0.11 0.07 48 1012.9
20260508012037 56 9 4.3 12.2 0.00 0.11 0.07 47 1012.8
20260508011549 56 134 0.9 7.8 0.00 0.11 0.07 47 1012.8
20260508011035 56 345 2.6 7.8 0.00 0.11 0.07 48 1012.8
20260508010535 56 290 2.6 12.2 0.00 0.11 0.07 48 1012.7
20260508010058 57 351 1.7 13.0 0.00 0.11 0.07 48 1012.6
20260508005539 57 150 3.5 13.0 0.00 0.11 0.07 46 1012.4
20260508005036 57 342 6.1 13.0 0.00 0.11 0.07 47 1012.4
20260508004554 56 263 1.7 7.0 0.00 0.11 0.07 48 1012.3
20260508004036 56 340 2.6 7.0 0.00 0.11 0.07 51 1012.1
20260508003535 56 325 2.6 8.7 0.00 0.11 0.07 55 1012.2
20260508003056 57 259 0.0 8.7 0.00 0.11 0.07 53 1012.0
20260508002536 57 328 3.5 10.4 0.00 0.11 0.07 49 1012.0
20260508002036 56 150 3.5 10.4 0.00 0.11 0.07 53 1012.0
20260508001541 55 141 1.7 5.2 0.00 0.11 0.07 62 1011.7
20260508001035 56 304 1.7 3.5 0.00 0.11 0.07 57 1011.8
20260508000538 57 131 0.9 2.6 0.00 0.11 0.07 56 1011.7
20260508000047 57 114 0.9 3.5 0.00 0.11 0.07 60 1011.7
20260507235533 58 0 0.9 3.5 0.00 0.11 0.07 56 1011.6
20260507235035 58 151 0.9 3.5 0.00 0.11 0.07 58 1011.5
20260507234544 59 0 0.9 3.5 0.00 0.11 0.07 53 1011.4
20260507234035 60 14 1.7 8.7 0.00 0.11 0.07 53 1011.3
20260507233535 61 81 2.6 8.7 0.00 0.11 0.07 49 1011.1
20260507233043 61 153 1.7 6.1 0.00 0.11 0.07 48 1011.1
20260507232536 61 0 1.7 6.1 0.00 0.11 0.07 45 1011.3
20260507232034 63 245 1.7 6.1 0.00 0.11 0.07 46 1011.0
20260507231546 62 139 1.7 6.1 0.00 0.11 0.07 45 1010.8
20260507231035 62 159 0.9 7.8 0.00 0.11 0.07 47 1010.9
20260507230536 62 188 2.6 7.8 0.00 0.11 0.07 45 1010.8
20260507230038 63 168 2.6 7.8 0.00 0.11 0.07 45 1010.7
20260507225535 63 195 2.6 7.8 0.00 0.11 0.07 47 1010.7
20260507225035 64 186 3.5 7.8 0.00 0.11 0.07 44 1010.4
20260507224545 65 169 1.7 7.8 0.00 0.11 0.07 43 1010.4
20260507224035 65 282 1.7 11.3 0.00 0.11 0.07 44 1010.5
20260507223539 65 243 1.7 11.3 0.00 0.11 0.07 43 1010.2
20260507223037 65 58 1.7 5.2 0.00 0.11 0.07 46 1010.2
20260507222537 65 160 1.7 6.1 0.00 0.11 0.07 45 1010.2
20260507222034 65 282 2.6 6.1 0.00 0.11 0.07 47 1010.2
20260507221539 65 224 1.7 6.1 0.00 0.11 0.07 52 1009.9
20260507221035 65 91 0.9 7.0 0.00 0.11 0.07 53 1010.0
20260507220534 64 165 1.7 7.8 0.00 0.11 0.07 52 1009.9
20260507220039 64 262 2.6 7.8 0.00 0.11 0.07 49 1009.8
20260507215535 64 229 1.7 6.1 0.00 0.11 0.07 55 1009.8
20260507215035 63 204 2.6 8.7 0.00 0.11 0.07 61 1009.7
20260507214545 63 170 1.7 8.7 0.00 0.11 0.07 69 1009.7
20260507214034 63 152 4.3 7.8 0.00 0.11 0.07 67 1009.5
20260507213535 63 167 5.2 7.8 0.00 0.11 0.07 70 1009.6
20260507213102 63 110 1.7 7.8 0.00 0.11 0.07 70 1009.6
20260507212539 63 174 4.3 7.8 0.00 0.11 0.07 74 1009.5
20260507212036 63 126 4.3 7.0 0.00 0.11 0.07 73 1009.6
20260507211543 63 188 2.6 7.0 0.00 0.11 0.07 72 1009.6
20260507211037 63 191 2.6 5.2 0.00 0.11 0.07 73 1009.5
20260507210537 63 233 0.9 5.2 0.00 0.11 0.07 74 1009.6
20260507210046 62 0 1.7 5.2 0.00 0.11 0.07 75 1009.6
20260507205537 62 197 3.5 9.6 0.00 0.11 0.07 76 1009.7
20260507205037 61 91 0.9 9.6 0.00 0.11 0.07 77 1009.8
20260507204557 61 172 5.2 9.6 0.00 0.11 0.07 77 1009.5
20260507204036 61 224 4.3 8.7 0.00 0.11 0.07 77 1009.5
20260507203540 61 148 5.2 8.7 0.00 0.11 0.07 77 1009.5
20260507203045 61 193 4.3 8.7 0.00 0.11 0.07 77 1009.6
20260507202537 61 145 3.5 7.8 0.00 0.11 0.07 78 1009.7
20260507202036 61 167 1.7 6.1 0.00 0.11 0.07 79 1009.8
20260507201544 60 136 1.7 7.8 0.00 0.11 0.07 78 1009.8
20260507201036 60 115 0.9 7.8 0.00 0.11 0.07 79 1010.0
20260507200536 61 126 4.3 7.8 0.00 0.11 0.07 79 1009.9
20260507200042 61 160 4.3 8.7 0.00 0.11 0.07 80 1010.0
20260507195536 60 165 3.5 8.7 0.00 0.11 0.07 81 1009.9
20260507195040 60 179 3.5 6.1 0.00 0.11 0.07 81 1010.1
20260507194547 60 170 1.7 5.2 0.00 0.11 0.07 80 1010.1
20260507194037 60 166 0.9 3.5 0.00 0.11 0.07 82 1010.2
20260507193537 59 150 0.9 4.3 0.00 0.11 0.07 83 1010.3
20260507193047 58 141 2.6 4.3 0.00 0.11 0.07 83 1010.3
20260507192537 58 226 0.9 4.3 0.00 0.11 0.07 82 1010.4
20260507192036 58 218 2.6 5.2 0.00 0.11 0.07 84 1010.7
20260507191544 58 219 2.6 6.1 0.00 0.11 0.07 84 1010.7
20260507191036 58 169 2.6 6.1 0.00 0.11 0.07 84 1010.7
20260507190536 58 141 3.5 7.8 0.00 0.11 0.07 84 1010.7
20260507190044 58 160 2.6 7.8 0.00 0.11 0.07 85 1010.9
20260507185536 57 198 0.9 6.1 0.00 0.11 0.07 87 1010.8
20260507185036 57 166 1.7 4.3 0.01 0.11 0.07 87 1010.8
20260507184540 56 158 0.9 6.1 0.01 0.11 0.07 88 1011.1
20260507184038 56 120 1.7 6.1 0.01 0.11 0.07 89 1011.1
20260507183537 56 152 2.6 7.0 0.01 0.11 0.07 89 1011.1
20260507183049 56 167 2.6 7.0 0.01 0.11 0.07 91 1011.1
20260507182537 56 166 2.6 5.2 0.01 0.11 0.07 91 1011.1
20260507182038 55 148 3.5 5.2 0.01 0.11 0.07 90 1011.3
20260507181546 55 118 1.7 4.3 0.01 0.11 0.07 92 1011.2
20260507181039 55 184 1.7 4.3 0.01 0.11 0.07 91 1011.4
20260507180537 55 167 2.6 4.3 0.01 0.11 0.07 91 1011.1
20260507180050 55 159 1.7 4.3 0.01 0.11 0.07 91 1011.2
20260507175535 55 136 1.7 4.3 0.00 0.10 0.06 91 1011.5
20260507175035 55 155 1.7 4.3 0.00 0.10 0.06 91 1011.7
20260507174543 55 145 1.7 2.6 0.00 0.10 0.06 90 1011.4
20260507174034 55 191 0.9 4.3 0.00 0.10 0.06 91 1011.6
20260507173534 55 228 1.7 4.3 0.00 0.10 0.06 91 1011.5
20260507173041 55 137 0.9 3.5 0.00 0.10 0.06 92 1011.4
20260507172538 55 195 0.9 6.1 0.00 0.10 0.06 92 1011.5
20260507172035 54 239 1.7 6.1 0.00 0.10 0.06 92 1011.7
20260507171539 54 0 0.9 2.6 0.00 0.10 0.06 91 1011.7
20260507171035 54 0 0.9 3.5 0.00 0.10 0.06 92 1011.8
20260507170535 54 239 1.7 3.5 0.00 0.10 0.06 92 1011.9
20260507170049 54 151 1.7 3.5 0.00 0.10 0.06 92 1012.0
20260507165534 54 149 1.7 2.6 0.00 0.10 0.06 92 1012.0
20260507165037 54 173 1.7 2.6 0.00 0.10 0.06 92 1012.0
20260507164546 54 155 1.7 3.5 0.00 0.10 0.06 92 1012.0
20260507164034 55 210 1.7 3.5 0.00 0.10 0.06 91 1012.1
20260507163538 55 206 0.9 2.6 0.00 0.10 0.06 92 1012.0
20260507163045 55 259 0.9 2.6 0.00 0.10 0.06 91 1012.2
20260507162535 55 155 1.7 2.6 0.00 0.10 0.06 91 1012.3
20260507162036 55 257 1.7 2.6 0.00 0.10 0.06 91 1012.4
20260507161542 55 187 0.0 0.9 0.00 0.10 0.06 91 1012.3
20260507161034 55 231 0.0 1.7 0.00 0.10 0.06 91 1012.4
20260507160534 55 0 0.0 2.6 0.01 0.10 0.06 90 1012.3
20260507160041 55 351 0.9 2.6 0.01 0.10 0.06 89 1012.4
20260507155534 55 348 0.0 1.7 0.01 0.10 0.06 89 1012.5
20260507155038 55 0 0.0 0.0 0.01 0.10 0.06 91 1012.5
20260507154547 55 0 0.0 0.0 0.01 0.10 0.06 91 1012.4
20260507154035 55 0 0.0 0.0 0.01 0.10 0.06 91 1012.6
20260507153536 54 0 0.0 1.7 0.02 0.10 0.06 91 1012.5
20260507153051 54 0 0.0 3.5 0.02 0.10 0.06 92 1012.7
20260507152534 54 351 1.7 3.5 0.02 0.10 0.06 92 1012.6
20260507152035 55 214 0.0 0.9 0.03 0.10 0.06 92 1012.5
20260507151545 55 0 0.0 0.9 0.03 0.10 0.06 92 1012.6
20260507151034 55 0 0.0 0.9 0.04 0.10 0.06 92 1012.6
20260507150538 55 0 0.0 0.0 0.04 0.09 0.05 92 1012.5
20260507150044 55 0 0.0 0.0 0.04 0.09 0.05 92 1012.6
20260507145535 55 0 0.0 0.0 0.04 0.09 0.05 91 1012.5
20260507145037 55 0 0.0 0.0 0.04 0.09 0.05 90 1012.5
20260507144550 55 0 0.0 0.0 0.04 0.09 0.05 91 1012.4
20260507144037 55 0 0.0 0.9 0.04 0.09 0.05 91 1012.5
20260507143536 55 0 0.0 0.9 0.03 0.08 0.04 90 1012.6
20260507143047 55 0 0.0 1.7 0.03 0.08 0.04 90 1012.7
20260507142537 55 0 0.0 1.7 0.03 0.08 0.04 89 1012.4
20260507142037 55 0 0.0 1.7 0.02 0.07 0.03 88 1012.4
20260507141552 55 283 0.0 0.9 0.02 0.07 0.03 85 1012.7
20260507141037 55 0 0.0 3.5 0.01 0.06 0.02 85 1012.7
20260507140536 56 283 0.9 3.5 0.00 0.05 0.01 82 1012.8
20260507140104 56 299 0.0 3.5 0.00 0.05 0.01 82 1012.5
20260507135536 56 343 1.7 3.5 0.00 0.10 0.01 80 1012.7
20260507135037 56 0 0.0 2.6 0.00 0.10 0.01 80 1012.7
20260507134548 56 0 0.0 2.6 0.00 0.10 0.01 80 1012.8
20260507134035 56 346 0.9 3.5 0.00 0.10 0.01 80 1012.7
20260507133540 56 326 0.9 3.5 0.00 0.10 0.01 80 1012.8
20260507133048 56 333 0.9 3.5 0.00 0.10 0.01 80 1012.8
20260507132536 57 352 0.0 2.6 0.00 0.10 0.01 83 1012.7
20260507132038 56 352 1.7 2.6 0.00 0.10 0.01 81 1012.8
20260507131554 57 72 0.0 3.5 0.00 0.10 0.01 82 1012.9
20260507131040 57 4 1.7 3.5 0.00 0.10 0.01 82 1012.7
20260507130537 57 354 0.9 2.6 0.00 0.10 0.01 82 1012.7
20260507130052 57 149 0.0 1.7 0.00 0.10 0.01 82 1012.8
20260507125536 57 0 0.0 0.9 0.00 0.13 0.01 83 1012.8
20260507125037 57 292 0.0 0.9 0.00 0.13 0.01 84 1012.8
20260507124552 57 0 0.0 2.6 0.00 0.13 0.01 85 1012.8
20260507124036 56 0 0.0 2.6 0.00 0.13 0.01 83 1012.7
20260507123536 56 290 0.0 1.7 0.00 0.13 0.01 83 1012.8
20260507123054 56 0 0.0 1.7 0.00 0.13 0.01 84 1012.8
20260507122536 56 0 0.0 2.6 0.00 0.13 0.01 84 1012.8
20260507122036 56 14 0.9 2.6 0.00 0.13 0.01 85 1012.8
20260507121550 56 10 0.9 3.5 0.00 0.13 0.01 85 1012.8
20260507121036 56 345 1.7 3.5 0.00 0.13 0.01 84 1012.7
20260507120536 56 26 0.9 3.5 0.00 0.13 0.01 86 1012.8
20260507120047 56 344 1.7 3.5 0.00 0.13 0.01 86 1012.9
20260507115534 56 0 0.0 2.6 0.00 0.16 0.01 87 1013.0
20260507115033 55 0 0.0 2.6 0.00 0.16 0.01 88 1012.9
20260507114543 55 3 0.0 1.7 0.00 0.16 0.01 89 1012.7
20260507114036 55 15 0.0 0.9 0.00 0.16 0.01 92 1012.4
20260507113535 55 0 0.0 0.0 0.00 0.16 0.01 92 1012.5
20260507113052 55 0 0.0 0.0 0.00 0.16 0.01 92 1012.4
20260507112534 55 0 0.0 0.0 0.00 0.16 0.01 92 1012.5
20260507112034 55 0 0.0 0.9 0.00 0.16 0.01 92 1012.5
20260507111548 54 0 0.0 0.9 0.00 0.16 0.01 92 1012.4
20260507111033 54 0 0.0 0.0 0.00 0.16 0.01 93 1012.4
20260507110534 54 0 0.0 1.7 0.00 0.16 0.01 93 1012.7
20260507110042 54 0 0.0 1.7 0.00 0.16 0.01 93 1012.4
20260507105533 54 330 0.9 1.7 0.00 0.17 0.01 93 1012.1
20260507105033 54 285 0.0 1.7 0.00 0.17 0.01 94 1012.3
20260507104547 53 0 0.0 0.9 0.00 0.17 0.01 94 1012.3
20260507104034 53 0 0.0 0.9 0.00 0.17 0.01 93 1012.1
20260507103533 53 0 0.0 0.9 0.00 0.17 0.01 93 1011.9
20260507103046 53 0 0.0 1.7 0.00 0.17 0.01 93 1011.8
20260507102533 53 0 0.9 1.7 0.00 0.17 0.01 93 1011.7
20260507102034 54 158 0.9 1.7 0.00 0.17 0.01 93 1011.8
20260507101547 54 157 0.0 0.0 0.00 0.17 0.01 92 1011.9
20260507101036 54 0 0.0 0.0 0.00 0.17 0.01 92 1011.9
20260507100534 54 0 0.0 0.0 0.00 0.17 0.01 91 1011.7
20260507100044 54 0 0.0 0.0 0.00 0.17 0.01 91 1011.9
20260507095534 54 0 0.0 0.0 0.00 0.17 0.01 91 1011.9
20260507095034 55 0 0.0 0.0 0.00 0.17 0.01 90 1011.8
20260507094538 55 0 0.0 0.0 0.00 0.17 0.01 90 1011.7
20260507094033 55 0 0.0 0.0 0.00 0.17 0.01 90 1011.9
20260507093533 55 0 0.0 0.9 0.00 0.17 0.01 89 1011.8
20260507093040 56 0 0.0 2.6 0.00 0.17 0.01 89 1011.8
20260507092535 56 0 0.0 2.6 0.00 0.17 0.01 88 1011.9
20260507092037 56 340 0.0 0.9 0.00 0.17 0.01 87 1011.7
20260507091545 56 0 0.0 2.6 0.00 0.17 0.01 86 1011.8
20260507091034 56 0 0.0 2.6 0.00 0.17 0.01 87 1011.6
20260507090534 56 229 0.0 2.6 0.00 0.17 0.01 87 1011.3
20260507090044 56 0 0.0 0.0 0.00 0.17 0.01 89 1011.2
20260507085534 56 0 0.0 2.6 0.00 0.17 0.01 88 1011.7
20260507085035 56 0 0.0 2.6 0.00 0.17 0.01 87 1011.8
20260507084553 56 0 0.0 1.7 0.00 0.17 0.01 89 1012.0
20260507084036 56 347 0.9 1.7 0.00 0.17 0.01 89 1012.1
20260507083537 56 12 0.0 1.7 0.00 0.17 0.01 89 1012.2
20260507083047 57 0 0.0 1.7 0.00 0.17 0.01 88 1012.5
20260507082538 57 0 0.0 0.0 0.00 0.17 0.01 88 1012.3
20260507082039 57 0 0.0 0.0 0.00 0.17 0.01 87 1011.9
20260507081547 57 0 0.0 1.7 0.00 0.17 0.01 86 1011.7
20260507081040 58 0 0.0 1.7 0.00 0.17 0.01 85 1011.5
20260507080535 58 148 0.0 1.7 0.00 0.17 0.01 85 1011.4
20260507080116 58 257 0.9 1.7 0.00 0.17 0.01 84 1011.8
20260507075535 58 0 0.0 6.1 0.00 0.17 0.01 83 1011.8
20260507075036 59 0 0.0 6.1 0.00 0.17 0.01 83 1011.8
20260507074546 59 296 0.0 3.5 0.00 0.17 0.01 82 1011.6
20260507074036 59 295 0.0 2.6 0.00 0.17 0.01 82 1011.7
20260507073536 59 0 0.9 4.3 0.00 0.17 0.01 82 1011.7
20260507073047 59 46 1.7 4.3 0.00 0.17 0.01 82 1011.5
20260507072536 59 0 1.7 7.0 0.00 0.17 0.01 82 1011.7
20260507072037 59 283 0.9 7.0 0.00 0.17 0.01 82 1011.5
20260507071557 59 257 1.7 7.0 0.00 0.17 0.01 82 1011.6
20260507071036 59 279 1.7 6.1 0.00 0.17 0.01 82 1011.7
20260507070536 59 0 1.7 7.8 0.00 0.17 0.01 83 1012.0
20260507070039 60 285 3.5 7.8 0.00 0.17 0.01 83 1012.0
20260507065535 60 351 0.9 7.8 0.00 0.17 0.01 83 1011.9
20260507065035 60 342 2.6 10.4 0.00 0.17 0.01 82 1011.6
20260507064551 59 0 0.9 10.4 0.00 0.17 0.01 83 1011.6
20260507064036 59 288 1.7 5.2 0.00 0.17 0.01 85 1011.5
20260507063535 59 7 2.6 5.2 0.00 0.17 0.01 86 1011.1
20260507063046 60 113 0.9 5.2 0.00 0.17 0.01 85 1011.5
20260507062536 60 343 1.7 5.2 0.00 0.17 0.01 84 1011.7
20260507062035 60 122 0.9 3.5 0.00 0.17 0.01 85 1011.8
20260507061541 60 142 0.9 7.0 0.00 0.17 0.01 83 1011.7
20260507061036 60 274 1.7 7.0 0.00 0.17 0.01 84 1011.6
20260507060536 60 304 2.6 6.1 0.00 0.17 0.01 84 1011.7
20260507060040 60 285 2.6 6.1 0.00 0.17 0.01 85 1011.7
20260507055538 60 350 1.7 4.3 0.00 0.17 0.01 85 1012.1
20260507055035 60 268 0.9 7.8 0.00 0.17 0.01 85 1012.0
20260507054541 61 326 1.7 7.8 0.00 0.17 0.01 84 1011.9
20260507054036 61 314 4.3 8.7 0.00 0.17 0.01 84 1012.2
20260507053535 61 307 3.5 8.7 0.00 0.17 0.01 84 1012.5
20260507053042 61 345 2.6 13.0 0.00 0.17 0.01 84 1012.6
20260507052535 61 320 3.5 13.0 0.00 0.17 0.01 84 1012.4
20260507052035 61 320 2.6 9.6 0.01 0.17 0.01 84 1012.3
20260507051545 61 306 4.3 8.7 0.01 0.17 0.01 85 1012.5
20260507051035 61 314 2.6 10.4 0.01 0.17 0.01 87 1012.5
20260507050536 61 274 3.5 10.4 0.01 0.17 0.01 89 1012.2
20260507050044 60 10 2.6 7.0 0.01 0.17 0.01 90 1012.1
20260507045536 60 0 0.9 5.2 0.01 0.17 0.01 92 1011.8
20260507045035 60 287 2.6 7.0 0.01 0.17 0.01 93 1011.8
20260507044539 60 347 2.6 7.0 0.01 0.17 0.01 94 1011.4